User: anonymous   Login
Location: Prairie State College
(41.5244°N, 87.6382°W)
Time: 05:36:08
(UTC-05:00)
Language:

ARGOS Delta rocket - Orbit

View from above orbital plane
View from above orbital plane
View from above satellite
View from above satellite

Ground track
Ground track

The orbit data is extracted from the following two-line orbital elements,

1 25637U 99008D   17178.84681609 +.00000040 +00000-0 +18008-4 0  9990
2 25637 096.4824 076.4565 0141069 246.9958 155.0576 14.46520699966865
Epoch (UTC): 27 June 2017 20:19:24
Eccentricity: 0.0141069
inclination: 96.4824°
perigee height: 636 km
apogee height: 837 km
right ascension of ascending node: 76.4565°
argument of perigee: 246.9958°
revolutions per day: 14.46520699
mean anomaly at epoch: 155.0576°
orbit number at epoch: 96686

The dashed part of the orbit path shows where the satellite is in the earth's shadow,  

DLR